Regional Weather Roundup
Issued by NWS

Home | Current Version | Previous Version | Graphics & Text | Print | Product List | Glossary On
Versions: 1 2 3 4 5 6 7 8 9 10 11 12 13 14 15 16 17 18 19 20 21 22 23 24 25 26 27 28 29 30 31 32 33 34 35 36 37 38 39 40 41 42 43 44 45 46 47 48 49 50
000
ASUS43 KDTX 311901
RWRMI
MICHIGAN HOURLY REGIONAL WEATHER ROUNDUP
NATIONAL WEATHER SERVICE DETROIT/PONTIAC MI
300 PM EDT TUE MAY 31 2016

NOTE: "FAIR" INDICATES FEW OR NO CLOUDS BELOW 12,000 FEET WITH NO
SIGNIFICANT WEATHER AND/OR OBSTRUCTION TO VISIBILITY.

MIZ047>049-052>055-059>063-066>070-074>076-081>083-312000-
SOUTHEAST LOWER MICHIGAN

CITY           SKY/WX    TMP DP  RH WIND       PRES   REMARKS
ADRIAN         CLOUDY    83  48  29 E12       30.04S
ALMA           MOSUNNY   79  50  36 SE3       30.06S
ANN ARBOR      PTSUNNY   81  48  31 VRB6      30.04S
BAD AXE        SUNNY     67  53  61 NE8       30.11S
CARO           CLOUDY    78  54  42 NE9       30.07R
DETROIT CITY   CLOUDY    79  53  40 NE10      30.05S
DETROIT        CLOUDY    81  45  28 E8G16     30.05R
FLINT          SUNNY     83  51  33 NE8G16    30.06S
GROSSE ILE     PTSUNNY   75  63  64 S7        30.03S
HILLSDALE      CLOUDY    82  29  14 E12G17    30.05S
HOWELL         MOSUNNY   82  45  26 NE7       30.05S

CITY           SKY/WX    TMP DP  RH WIND       PRES   REMARKS
JACKSON        MOSUNNY   82  47  29 SE10G17   30.05S
LAMBERTVILLE   CLOUDY    80  52  37 SE5       30.05S
LANSING        MOSUNNY   80  50  34 NE7       30.05S
LAPEER         FAIR      78  50  38 NE3       30.06S
MASON          MOSUNNY   82  49  31 NE7       30.05S
MONROE         PTSUNNY   78  60  54 SE7       30.04S
MT. CLEMENS    MOSUNNY   75  58  55 E10       30.05F
PONTIAC        PTSUNNY   80  48  32 NE10      30.04F
PORT HOPE        N/A     56  50  80 NE9       30.11S
PORT HURON     SUNNY     64  54  68 N9        30.09S
TRI CITIES     MOSUNNY   77  53  43 E9        30.08R
MIDLAND        FAIR      75  55  50 E10       30.07S
TROY           MOSUNNY   81  50  34 E8G16     30.06S
SAGINAW HB     MOSUNNY   77  54  44 N13       30.06S
$$
MIZ043>046-050>051-056>058-064>065-071>073-077>080-312000-
SOUTHWEST LOWER MICHIGAN

CITY           SKY/WX    TMP DP  RH WIND       PRES   REMARKS
BATTLE CREEK   PTSUNNY   81  46  29 SE13      30.05S
BENTON HARBOR  PTSUNNY   82  51  34 SE7       30.00F
BIG RAPIDS     MOSUNNY   77  54  45 E10       30.04F
COLDWATER      CLOUDY    81  46  29 E10       30.04S
FREMONT        FAIR      82  49  31 SE10      30.03S
HOLLAND        MOSUNNY   83  47  28 SE15G22   30.02F
GRAND RAPIDS   PTSUNNY   84  48  28 E10       30.04S
IONIA          FAIR      81  48  30 SE7       30.04S
KALAMAZOO      CLOUDY    82  46  28 VRB3      30.03F
LUDINGTON      SUNNY     80  58  45 SW7       30.02F
MARSHALL       CLOUDY    80  46  29 E5        30.04S
MOUNT PLEASANT MOSUNNY   79  52  38 CALM      30.05S
MUSKEGON       PTSUNNY   85  47  26 E14G21    30.01F
SOUTH HAVEN    PTSUNNY   83  45  26 E12       30.01F
$$
MIZ016>042-312000-
NORTHERN LOWER MICHIGAN

CITY           SKY/WX    TMP DP  RH WIND       PRES   REMARKS
ALPENA         SUNNY     67  46  47 E9        30.11F
BEAVER ISLAND  SUNNY     66  48  52 E9        30.09S
BELLAIRE       SUNNY     79  45  29 NE8       30.05S
CADILLAC       CLOUDY    78  52  39 SW6       30.05S
CHARLEVOIX     SUNNY     72  49  44 E7        30.10R
FRANKFORT      SUNNY     78  56  47 N6        30.02F
GAYLORD        SUNNY     75  45  34 VRB5      30.08S
GRAYLING       SUNNY     81  47  30 SW5       30.07S
HARBOR SPRINGS SUNNY     70  49  47 E8        30.08S
HOUGHTON LAKE  SUNNY     78  51  38 W9        30.06S
MANISTEE       SUNNY     79  54  41 W12       30.03F
OSCODA         SUNNY     62  44  52 E14G20    30.12R
PELLSTON       MOSUNNY   70  46  42 E6        30.09F
ROGERS CITY    SUNNY     58  45  62 NE8       30.13F
TRAVERSE CITY  MOSUNNY   67  54  63 N8        30.04S
$$
MIZ007>008-015-312000-
EASTERN UPPER MICHIGAN

CITY           SKY/WX    TMP DP  RH WIND       PRES   REMARKS
KINROSS          N/A     70  46  43 S12       30.09F
MACKINAC ISLAN SUNNY     62  45  52 E7G16     30.11S
NEWBERRY       SUNNY     70  45  40 CALM      30.08F
S. S. MARIE    SUNNY     69  48  47 SE7       30.08F
MUNISING         N/A     53  46  77 NE15      30.08F
$$
MIZ004>006-011>014-085-312000-
CENTRAL UPPER MICHIGAN

CITY           SKY/WX    TMP DP  RH WIND       PRES   REMARKS
MANISTIQUE     SUNNY     65  48  53 SE12G17   30.08S
ESCANABA       SUNNY     61  46  59 SE10      30.07F
MENOMINEE      SUNNY     61  46  59 E13       30.07S
SAWYER-GWINN   SUNNY     63  46  55 NE9       30.06F
$$
MIZ001>003-009>011-084-312000-
WESTERN UPPER MICHIGAN

CITY           SKY/WX    TMP DP  RH WIND       PRES   REMARKS
IRON MOUNTAIN  MOSUNNY   70  46  42 SE15G23   30.03S
HOUGHTON       CLOUDY    47  39  74 E18       30.05F
COPPER HARBOR    N/A     50  38  63 S9        30.08F
IRONWOOD       CLOUDY    66  54  63 SE13G20     N/A
$$

ABBREVIATIONS USED IN REMARKS
   TC - TEMPERATURE IN CELSIUS
  WCI - WIND CHILL INDEX
   HX - HEAT INDEX
  VSB - VISIBILITY





USA.gov is the U.S. government's official web portal to all federal, state and local government web resources and services.